This demonstration page uses our WeatherBlox Daily Observations layout. Learn more.

Hourly Observations for May 6, 2018

Temp ( °F °C ) Dew Point ( °F °C ) Humidity (%) Winds ( mph kmh ) Pressure ( in mb ) Visibility ( mi km ) Precip ( " mm )
12:54 am 00:54 Clear 53 11.7 48 8.9 83 83 N 3 6 30.01 1016 10 16.0934 0 0
1:54 am 01:54 Clear 53 11.7 48 8.9 83 83 N 6 9 30.01 1016 10 16.0934 0 0
2:54 am 02:54 Mostly Clear 55 12.8 49 9.4 80 80 W 5 7 30.01 1016 10 16.0934 0 0
3:54 am 03:54 Clear 51 10.6 47 8.3 86 86 N 5 7 30.02 1017 10 16.0934 0 0
4:54 am 04:54 Clear 51 10.6 48 8.9 89 89 N 5 7 30.02 1017 10 16.0934 0 0
5:54 am 05:54 Clear 52 11.1 49 9.4 89 89 Calm 30.02 1017 10 16.0934 0 0
6:54 am 06:54 Sunny 52 11.1 47 8.3 83 83 Calm 30.04 1017 9 14.48406 0 0
7:54 am 07:54 Sunny 57 13.9 51 10.6 81 81 Calm 30.05 1018 10 16.0934 0 0
8:54 am 08:54 Sunny 69 20.6 53 11.7 57 57 NNW 5 7 30.06 1018 10 16.0934 0 0
9:54 am 09:54 Sunny 77 25 49 9.4 37 37 NNE 10 17 30.06 1018 10 16.0934 0 0
10:54 am 10:54 Sunny 79 26.1 50 10 36 36 NNE 8 13 30.08 1019 10 16.0934 0 0
11:54 am 11:54 Sunny 82 27.8 47 8.3 29 29 NNE 8 13 30.08 1019 10 16.0934 0 0
12:54 pm 12:54 Mostly Sunny 85 29.4 49 9.4 29 29 N 13 20 30.07 1018 10 16.0934 0 0
1:54 pm 13:54 Sunny 84 28.9 46 7.8 27 27 NNE 8 13 30.07 1018 10 16.0934 0 0
2:54 pm 14:54 Sunny 85 29.4 44 6.7 24 24 NNE 10 17 30.07 1018 10 16.0934 0 0
3:54 pm 15:54 Mostly Sunny 85 29.4 44 6.7 24 24 NNE 15 24 30.06 1018 10 16.0934 0 0
4:54 pm 16:54 Partly Cloudy 83 28.3 46 7.8 27 27 N 12 19 30.07 1018 10 16.0934 0 0
5:54 pm 17:54 Mostly Sunny 82 27.8 47 8.3 29 29 N 18 30 30.08 1019 10 16.0934 0 0
6:54 pm 18:54 Sunny 80 26.7 46 7.8 30 30 N 13 20 30.09 1019 10 16.0934 0 0
7:54 pm 19:54 Sunny 74 23.3 47 8.3 38 38 NE 10 17 30.09 1019 10 16.0934 0 0
8:54 pm 20:54 Clear 68 20 46 7.8 45 45 NNE 10 17 30.1 1019 10 16.0934 0 0
9:54 pm 21:54 Clear 63 17.2 45 7.2 52 52 ENE 9 15 30.12 1020 10 16.0934 0 0
10:54 pm 22:54 Clear 62 16.7 45 7.2 54 54 ENE 8 13 30.13 1020 10 16.0934 0 0
11:54 pm 23:54 Clear 62 16.7 44 6.7 52 52 undefined N/A 30.14 1021 10 16.0934 0 0

Powered by AerisWeather